TimeEDT,TemperatureF,Dew PointF,Humidity,Sea Level PressureIn,VisibilityMPH,Wind Direction,Wind SpeedMPH,Gust SpeedMPH,PrecipitationIn,Events,Conditions,WindDirDegrees,DateUTC
12:15 AM,34.5,26.2,72,30.08,10.0,NW,5.8,-,N/A,,Clear,310,2012-11-03 04:15:00
12:34 AM,33.4,26.6,76,30.08,10.0,NW,5.8,-,N/A,,Clear,320,2012-11-03 04:34:00
12:54 AM,33.1,26.6,77,30.08,10.0,NW,5.8,-,N/A,,Clear,320,2012-11-03 04:54:00
1:15 AM,33.1,26.6,77,30.08,10.0,NNW,5.8,-,N/A,,Clear,330,2012-11-03 05:15:00
1:34 AM,33.3,26.8,77,30.09,10.0,NW,5.8,-,N/A,,Mostly Cloudy,320,2012-11-03 05:34:00
1:55 AM,32.7,27.0,79,30.09,10.0,NW,5.8,-,N/A,,Mostly Cloudy,320,2012-11-03 05:55:00
2:14 AM,33.1,27.1,79,30.10,10.0,NNW,6.9,-,N/A,,Scattered Clouds,330,2012-11-03 06:14:00
2:34 AM,32.4,27.1,81,30.10,10.0,NW,5.8,-,N/A,,Clear,320,2012-11-03 06:34:00
2:55 AM,32.4,27.3,82,30.10,10.0,NW,5.8,-,N/A,,Clear,320,2012-11-03 06:55:00
3:14 AM,32.0,27.1,82,30.11,10.0,NW,5.8,-,N/A,,Scattered Clouds,310,2012-11-03 07:14:00
3:35 AM,32.0,27.9,85,30.11,10.0,NW,3.5,-,N/A,,Mostly Cloudy,320,2012-11-03 07:35:00
3:55 AM,32.5,28.2,84,30.11,10.0,NNW,4.6,-,N/A,,Overcast,330,2012-11-03 07:55:00
4:14 AM,32.2,27.7,83,30.11,10.0,NW,4.6,-,N/A,,Overcast,310,2012-11-03 08:14:00
4:35 AM,31.1,27.1,85,30.11,10.0,NW,4.6,-,N/A,,Scattered Clouds,320,2012-11-03 08:35:00
4:55 AM,30.0,26.2,86,30.11,10.0,WNW,4.6,-,N/A,,Clear,290,2012-11-03 08:55:00
5:14 AM,29.1,25.7,87,30.11,10.0,NW,3.5,-,N/A,,Clear,310,2012-11-03 09:14:00
5:35 AM,29.3,26.1,88,30.12,10.0,NW,3.5,-,N/A,,Clear,310,2012-11-03 09:35:00
5:55 AM,28.9,26.1,89,30.13,10.0,WNW,4.6,-,N/A,,Clear,300,2012-11-03 09:55:00
6:14 AM,28.6,25.9,90,30.13,10.0,WNW,5.8,-,N/A,,Clear,300,2012-11-03 10:14:00
6:35 AM,28.8,26.2,90,30.14,10.0,WNW,4.6,-,N/A,,Clear,300,2012-11-03 10:35:00
6:54 AM,29.1,26.6,90,30.14,10.0,WNW,5.8,-,N/A,,Clear,300,2012-11-03 10:54:00
7:14 AM,29.8,27.5,91,30.14,10.0,NW,4.6,-,N/A,,Clear,320,2012-11-03 11:14:00
7:35 AM,29.5,27.0,90,30.15,10.0,NW,3.5,-,N/A,,Clear,320,2012-11-03 11:35:00
7:54 AM,28.4,25.9,90,30.14,10.0,NW,3.5,-,N/A,,Clear,310,2012-11-03 11:54:00
8:14 AM,28.4,26.1,91,30.15,10.0,WNW,3.5,-,N/A,,Clear,300,2012-11-03 12:14:00
8:35 AM,29.1,26.6,90,30.15,10.0,Calm,Calm,-,N/A,,Clear,0,2012-11-03 12:35:00
8:54 AM,30.2,27.9,91,30.15,10.0,Calm,Calm,-,N/A,,Clear,0,2012-11-03 12:54:00
9:15 AM,31.5,28.6,89,30.16,10.0,Calm,Calm,-,N/A,,Clear,0,2012-11-03 13:15:00
9:35 AM,32.0,29.1,89,30.16,10.0,Calm,Calm,-,N/A,,Clear,0,2012-11-03 13:35:00
9:54 AM,33.1,28.9,85,30.17,10.0,North,4.6,-,N/A,,Clear,10,2012-11-03 13:54:00
10:15 AM,34.0,28.6,81,30.17,10.0,North,5.8,-,N/A,,Clear,360,2012-11-03 14:15:00
10:54 AM,36.5,27.5,70,30.18,10.0,NNW,5.8,-,N/A,,Scattered Clouds,330,2012-11-03 14:54:00
11:15 AM,36.1,27.7,71,30.18,10.0,NNE,3.5,-,N/A,,Mostly Cloudy,20,2012-11-03 15:15:00
11:35 AM,37.8,27.7,67,30.18,10.0,NNW,3.5,-,N/A,,Overcast,340,2012-11-03 15:35:00
11:54 AM,36.9,26.4,66,30.18,10.0,North,4.6,-,N/A,,Mostly Cloudy,360,2012-11-03 15:54:00
12:15 PM,38.3,27.1,64,30.18,10.0,NE,6.9,-,N/A,,Mostly Cloudy,40,2012-11-03 16:15:00
12:34 PM,38.5,27.1,64,30.18,10.0,Calm,Calm,-,N/A,,Mostly Cloudy,0,2012-11-03 16:34:00
12:54 PM,37.8,26.6,64,30.17,10.0,NNE,3.5,-,N/A,,Overcast,30,2012-11-03 16:54:00
1:15 PM,38.8,26.6,61,30.17,10.0,NNE,4.6,-,N/A,,Overcast,30,2012-11-03 17:15:00
1:34 PM,38.7,27.0,63,30.17,10.0,WNW,5.8,-,N/A,,Overcast,290,2012-11-03 17:34:00
1:55 PM,39.6,26.4,59,30.17,10.0,NNW,4.6,-,N/A,,Overcast,330,2012-11-03 17:55:00
2:14 PM,38.8,26.6,61,30.16,10.0,NW,3.5,-,N/A,,Overcast,320,2012-11-03 18:14:00
2:35 PM,38.7,26.2,61,30.16,10.0,Calm,Calm,-,N/A,,Overcast,0,2012-11-03 18:35:00
2:54 PM,39.4,26.8,61,30.17,10.0,NW,5.8,-,N/A,,Overcast,320,2012-11-03 18:54:00
3:15 PM,39.0,26.4,61,30.16,10.0,North,4.6,-,N/A,,Overcast,10,2012-11-03 19:15:00
3:34 PM,39.0,26.6,61,30.15,10.0,North,3.5,-,N/A,,Overcast,360,2012-11-03 19:34:00
3:54 PM,38.8,26.6,61,30.15,10.0,North,4.6,-,N/A,,Overcast,360,2012-11-03 19:54:00
4:15 PM,38.8,27.0,62,30.15,10.0,Calm,Calm,-,N/A,,Overcast,0,2012-11-03 20:15:00
4:34 PM,38.8,26.6,61,30.15,10.0,North,3.5,-,N/A,,Overcast,350,2012-11-03 20:34:00
4:55 PM,38.5,26.8,63,30.15,10.0,NNW,4.6,-,N/A,,Overcast,340,2012-11-03 20:55:00
5:14 PM,38.3,26.6,63,30.15,10.0,Calm,Calm,-,N/A,,Overcast,0,2012-11-03 21:14:00
5:34 PM,37.9,26.6,64,30.15,10.0,NNW,4.6,-,N/A,,Overcast,340,2012-11-03 21:34:00
5:55 PM,37.4,26.4,65,30.16,10.0,North,4.6,-,N/A,,Overcast,10,2012-11-03 21:55:00
6:14 PM,36.9,26.6,66,30.16,10.0,Calm,Calm,-,N/A,,Overcast,0,2012-11-03 22:14:00
6:35 PM,37.0,27.0,67,30.16,10.0,NW,6.9,-,N/A,,Overcast,320,2012-11-03 22:35:00
6:54 PM,36.5,26.2,66,30.16,10.0,North,3.5,-,N/A,,Overcast,360,2012-11-03 22:54:00
7:15 PM,36.1,26.6,68,30.16,10.0,Calm,Calm,-,N/A,,Overcast,0,2012-11-03 23:15:00
7:35 PM,36.3,26.8,68,30.17,10.0,Calm,Calm,-,N/A,,Overcast,0,2012-11-03 23:35:00
7:54 PM,36.0,26.4,68,30.16,10.0,NNE,4.6,-,N/A,,Overcast,20,2012-11-03 23:54:00
8:15 PM,36.0,26.6,69,30.17,10.0,NNE,3.5,-,N/A,,Overcast,30,2012-11-04 00:15:00
8:34 PM,36.0,26.2,68,30.17,10.0,Calm,Calm,-,N/A,,Overcast,0,2012-11-04 00:34:00
8:55 PM,36.0,26.4,68,30.17,10.0,Calm,Calm,-,N/A,,Overcast,0,2012-11-04 00:55:00
9:15 PM,36.0,26.4,68,30.16,10.0,NE,5.8,-,N/A,,Overcast,50,2012-11-04 01:15:00
9:34 PM,35.6,25.9,68,30.16,10.0,NNE,4.6,-,N/A,,Overcast,20,2012-11-04 01:34:00
9:55 PM,34.9,25.7,69,30.17,10.0,Calm,Calm,-,N/A,,Scattered Clouds,0,2012-11-04 01:55:00
10:14 PM,34.0,25.5,71,30.17,10.0,Calm,Calm,-,N/A,,Clear,0,2012-11-04 02:14:00
10:34 PM,29.3,23.2,78,30.18,10.0,Calm,Calm,-,N/A,,Scattered Clouds,0,2012-11-04 02:34:00
10:55 PM,31.5,26.6,82,30.18,10.0,Calm,Calm,-,N/A,,Overcast,0,2012-11-04 02:55:00
11:14 PM,33.4,27.7,79,30.17,10.0,Calm,Calm,-,N/A,,Overcast,0,2012-11-04 03:14:00
11:35 PM,33.8,27.3,77,30.17,10.0,Calm,Calm,-,N/A,,Overcast,0,2012-11-04 03:35:00
11:55 PM,33.4,27.0,77,30.17,10.0,Calm,Calm,-,N/A,,Overcast,0,2012-11-04 03:55:00